Content
SEND FEEDBACK

Daily
Averages
Monthly
Summary
Switzerland

GENEVA, SWITZERLAND


Home > Europe > Switzerland
Elevation: 1364 feet     Latitude: 46 15N     Longitude: 006 08E

WEATHER
 
SELECT A DAY
Number of Records: 305,866;   Date Range: 7/1/96 - 8/12/14
 
SHARE

PRINT THIS DATA

[ ← Previous Day ]
WEATHER ALMANAC - MAY 19, 2013
[ Next Day → ]
[ °C ]   °F
Weather ElementAverageHighLow
Temperature49.5 °F57.2 °F (3:20 pm)44.6 °F (2:20 am)
Dewpoint45 °F48.2 °F (1:20 pm)39 °F (12:00 pm)
Humidity83.6 %100 % (2:20 am)51 % (3:00 pm)
Barometer29.86 in29.99 in (10:00 pm)29.77 in (12:20 am)
Wind Speed7.8 mph17.3 mph (1:50 pm)
Wind Gust27.6 mph (7:20 pm)
Weather ElementAverage
Visibility6.9 mi
Wind DirectionSSE (154.4 °)

Weather ElementTotal
Precipitation---
Heating Degree Days14.1 (Base 65)
Growing Degree Days0.9 (Base 50)
Averaged from 66 records on May 19, 2013
WEATHER CONDITIONS BREAKOUT
WIND DIRECTION BREAKOUT
WEATHER BY HOUR - MAY 19, 2013
[ °C ]   °F
Local TimeTemperatureDewpointHumidityBarometerVisibilityWind DirectionWind SpeedGust SpeedPrecipitationEventsConditions
12:20 AM48.2 °F44.6 °F87 %29.77 in4.3 miSW (220°)12.7 mphRainRain
12:50 AM46.4 °F44.6 °F93 %29.77 in4.3 miWSW (240°)12.7 mphRainRain
1:00 AM47.0 °F44.0 °F83 %29.81 inWSW (240°)9.2 mph
1:20 AM46.4 °F44.6 °F93 %29.80 in4.3 miSW (220°)10.4 mphRainRain
1:50 AM46.4 °F44.6 °F93 %29.80 in4.3 miSW (230°)4.6 mphRainRain
2:00 AM46.0 °F43.0 °F86 %29.82 in4.0 miSSW (210°)2.3 mphRainRain
2:20 AM44.6 °F44.6 °F100 %29.80 in4.3 miVariable1.2 mphRainRain
2:50 AM46.4 °F44.6 °F93 %29.77 in5.0 miCalmRainLight Rain
3:00 AM46.0 °F44.0 °F90 %29.81 inNNE (30°)4.6 mph
3:50 AM44.6 °F44.6 °F100 %29.77 in6.2 miVariable3.5 mphRainLight Rain
4:00 AM46.0 °F44.0 °F89 %29.80 inNNE (30°)4.6 mph
4:20 AM44.6 °F44.6 °F100 %29.77 in6.2 miNNE (30°)4.6 mphRainLight Rain
4:50 AM44.6 °F44.6 °F100 %29.77 in6.2 miNNE (20°)5.8 mphRainLight Rain
5:20 AM44.6 °F44.6 °F100 %29.77 in6.2 miNNE (20°)5.8 mphRainLight Rain
5:50 AM44.6 °F44.6 °F100 %29.77 in6.2 miENE (60°)9.2 mphRainLight Rain
6:00 AM46.0 °F44.0 °F89 %29.81 inNE (40°)9.2 mph
6:20 AM44.6 °F44.6 °F100 %29.80 in6.2 miNE (50°)3.5 mphMostly Cloudy
6:50 AM44.6 °F44.6 °F100 %29.80 in6.2 miVariable3.5 mphMostly Cloudy
7:00 AM47.0 °F45.0 °F88 %29.81 inNorth (350°)3.5 mph
7:20 AM46.4 °F46.4 °F100 %29.80 in6.2 miNorth (360°)3.5 mphMostly Cloudy
7:50 AM46.4 °F44.6 °F93 %29.83 in6.2 miENE (60°)5.8 mphMostly Cloudy
8:00 AM47.0 °F45.0 °F91 %29.85 in40.0 miNNE (20°)6.9 mphPartly Cloudy
8:20 AM48.2 °F46.4 °F93 %29.83 in6.2 miNNE (20°)6.9 mphMostly Cloudy
8:50 AM48.2 °F46.4 °F93 %29.83 in6.2 miNNE (20°)5.8 mphMostly Cloudy
9:00 AM48.0 °F44.0 °F81 %29.84 inNNE (20°)8.1 mph
9:20 AM50.0 °F46.4 °F87 %29.83 in6.2 miNE (50°)8.1 mphMostly Cloudy
9:50 AM50.0 °F44.6 °F82 %29.83 in6.2 miNE (50°)8.1 mphMostly Cloudy
10:00 AM51.0 °F45.0 °F72 %29.84 inNE (40°)11.5 mph
10:20 AM50.0 °F42.8 °F76 %29.83 in6.2 miNE (40°)8.1 mphMostly Cloudy
10:50 AM51.8 °F42.8 °F71 %29.83 in6.2 miNE (40°)6.9 mphMostly Cloudy
11:20 AM51.8 °F41.0 °F67 %29.83 in6.2 miNNE (30°)6.9 mphMostly Cloudy
11:50 AM51.8 °F41.0 °F67 %29.83 in6.2 miEast (80°)4.6 mphMostly Cloudy
12:00 PM51.0 °F39.0 °F54 %29.86 inENE (70°)3.5 mph
12:20 PM51.8 °F42.8 °F71 %29.86 in3.7 miVariable3.5 mphRainRain Showers
12:50 PM51.8 °F46.4 °F82 %29.86 in6.2 miWSW (250°)5.8 mphRainLight Rain
1:00 PM52.0 °F46.0 °F75 %29.88 inWest (260°)6.9 mph
1:20 PM53.6 °F48.2 °F82 %29.86 in6.2 miSW (220°)10.4 mphRainLight Rain
1:50 PM55.4 °F44.6 °F67 %29.86 in6.2 miSSW (200°)17.3 mphMostly Cloudy
2:00 PM55.0 °F45.0 °F59 %29.86 in34.0 miSW (220°)13.8 mphRainLight Rain
2:20 PM53.6 °F46.4 °F77 %29.86 in6.2 miWSW (240°)9.2 mphMostly Cloudy
2:50 PM55.4 °F44.6 °F67 %29.86 in6.2 miSW (230°)9.2 mphMostly Cloudy
3:00 PM56.0 °F43.0 °F51 %29.87 inSW (230°)13.8 mph
3:20 PM57.2 °F44.6 °F63 %29.86 in6.2 miSW (220°)13.8 mphMostly Cloudy
3:50 PM53.6 °F48.2 °F82 %29.89 in6.2 miWSW (250°)10.4 mphRainLight Rain Showers
4:00 PM54.0 °F46.0 °F68 %29.90 inWest (260°)10.4 mph
4:20 PM53.6 °F46.4 °F77 %29.89 in6.2 miWSW (240°)12.7 mphMostly Cloudy
4:50 PM53.6 °F46.4 °F77 %29.89 in6.2 miSW (230°)11.5 mphMostly Cloudy
5:20 PM55.4 °F46.4 °F72 %29.89 in6.2 miSW (230°)10.4 mphMostly Cloudy
5:50 PM55.4 °F44.6 °F67 %29.89 in6.2 miSW (220°)10.4 mphMostly Cloudy
6:00 PM54.0 °F43.0 °F56 %29.90 inSW (230°)9.2 mph
6:20 PM55.4 °F44.6 °F67 %29.89 in6.2 miSW (230°)9.2 mphMostly Cloudy
6:50 PM51.8 °F48.2 °F88 %29.89 in6.2 miWSW (240°)8.1 mphRainLight Rain Showers
7:00 PM53.0 °F47.0 °F72 %29.91 inWSW (250°)5.8 mph
7:20 PM50.0 °F44.6 °F82 %29.92 in3.1 miSW (220°)16.1 mph27.6 mphRainHeavy Rain Showers
7:50 PM48.2 °F46.4 °F93 %29.92 in5.0 miSSW (200°)9.2 mphRainLight Rain Showers
8:00 PM48.0 °F46.0 °F88 %29.95 in4.0 miSouth (190°)10.4 mphRainHeavy Rain Showers
8:20 PM48.2 °F46.4 °F93 %29.92 in6.2 miSSW (200°)10.4 mphRainLight Rain Showers
8:50 PM48.2 °F46.4 °F93 %29.95 in6.2 miWSW (250°)4.6 mphRainLight Rain Showers
9:00 PM48.0 °F45.0 °F87 %29.96 inSW (220°)5.8 mph
9:20 PM48.2 °F46.4 °F93 %29.95 in5.6 miSW (230°)3.5 mphRainLight Rain Showers
9:50 PM48.2 °F46.4 °F93 %29.95 in5.6 miSW (220°)8.1 mphRainLight Rain Showers
10:00 PM47.0 °F44.0 °F87 %29.99 inSSW (210°)10.4 mph
10:20 PM48.2 °F44.6 °F87 %29.98 in5.6 miSSW (210°)11.5 mphRainLight Rain Showers
10:50 PM48.2 °F46.4 °F93 %29.98 in6.2 miSSW (200°)8.1 mphRainLight Rain Showers
11:20 PM46.4 °F46.4 °F100 %29.98 in6.2 miWest (260°)3.5 mphMostly Cloudy
11:50 PM46.4 °F46.4 °F100 %29.98 in6.2 miWSW (240°)4.6 mphMostly Cloudy
Hourly data recorded from LSGG, located miles away from Geneva, Switzerland







STORIES FROM OUR PARTNERS